tititudorancea.com
Station Historical Data
Daily Summary for January 11, 2018 Units:  Metric    English   Both
« Previous Day
Next Day »
Daily Weekly Monthly Yearly Custom
  High: Low: Average:
Temperature: -17.8 °C 10.7 °C 22.3 °C
Dew Point: -17.8 °C 0.2 °C 7.3 °C
Humidity: Humidity % 15 % 48 %
Wind Speed: 0 km/h 0 km/h 3.7 km/h
Wind Gust: 0 km/h - -
Wind:- - West
Pressure: 0 hPa 1006.3 hPa -
Precipitation: 0 mm    
Historical Graphs
 
 
Ararat weather Find more about Weather in Ararat, AU


 



 


Tabular Data for January 11, 2018
Time Temperature Dew Point Pressure Wind Wind Speed Wind Gust Humidity Rainfall Rate (Hourly)
-17.8 °C -17.8 °C 0 hPa Calm     Humidity % 0 mm
00:06 16.9 °C 11.4 °C 1012.8 hPa North 2.1 km/h 3.7 km/h 70 % 0 mm
00:13 16.7 °C 11.4 °C 1012.8 hPa South 0.5 km/h 1.9 km/h 71 % 0 mm
00:20 16.5 °C 11.4 °C 1012.8 hPa South 0.6 km/h 1.9 km/h 72 % 0 mm
00:26 16.3 °C 11.3 °C 1012.8 hPa Calm     72 % 0 mm
00:34 16.1 °C 11.3 °C 1012.4 hPa Calm     73 % 0 mm
00:40 15.9 °C 11.1 °C 1012.4 hPa Calm     73 % 0 mm
00:53 15.4 °C 11.1 °C 1012.1 hPa Calm     75 % 0 mm
00:58 15.2 °C 11 °C 1012.1 hPa Calm     76 % 0 mm
01:00 15.2 °C 10.9 °C 1012.1 hPa Calm     76 % 0 mm
01:06 14.9 °C 11.2 °C 1012.1 hPa Calm     78 % 0 mm
01:12 14.8 °C 11 °C 1011.7 hPa Calm     78 % 0 mm
01:22 14.7 °C 11.1 °C 1012.1 hPa Calm     79 % 0 mm
01:32 14.3 °C 10.7 °C 1011.7 hPa South 2.6 km/h 5.6 km/h 79 % 0 mm
01:37 14.1 °C 10.7 °C 1011.7 hPa South 0.2 km/h 1.9 km/h 80 % 0 mm
01:44 13.7 °C 10.3 °C 1011.7 hPa Calm     80 % 0 mm
01:53 13.4 °C 10.2 °C 1011.7 hPa Calm     81 % 0 mm
01:59 13.1 °C 10.1 °C 1011.7 hPa Calm     82 % 0 mm
02:07 12.9 °C 10.2 °C 1011.4 hPa Calm     84 % 0 mm
02:18 12.9 °C 10.4 °C 1011.4 hPa Calm     85 % 0 mm
02:24 12.7 °C 10.3 °C 1011.1 hPa Calm     85 % 0 mm
02:29 12.6 °C 10.1 °C 1011.4 hPa Calm     85 % 0 mm
02:38 12.5 °C 10.2 °C 1011.4 hPa Calm     86 % 0 mm
02:44 12.4 °C 10.2 °C 1011.1 hPa Calm     86 % 0 mm
02:50 12.3 °C 10.1 °C 1011.1 hPa Calm     86 % 0 mm
02:56 12.1 °C 9.8 °C 1011.1 hPa South 1.1 km/h 3.7 km/h 86 % 0 mm
03:09 11.7 °C 9.3 °C 1011.1 hPa Calm     85 % 0 mm
03:20 11.3 °C 8.9 °C 1010.7 hPa Calm     85 % 0 mm
03:27 11.1 °C 8.8 °C 1010.7 hPa Calm     86 % 0 mm
03:35 10.9 °C 8.9 °C 1010.7 hPa Calm     87 % 0 mm
03:42 10.9 °C 8.8 °C 1010.7 hPa Calm     87 % 0 mm
03:49 10.8 °C 8.7 °C 1010.7 hPa Calm     87 % 0 mm
03:54 10.8 °C 8.9 °C 1010.7 hPa Calm     88 % 0 mm
04:00 10.8 °C 8.9 °C 1010.4 hPa Calm     88 % 0 mm
04:05 10.7 °C 8.8 °C 1010.4 hPa Calm     88 % 0 mm
04:11 10.7 °C 9 °C 1010.4 hPa Calm     89 % 0 mm
04:18 10.8 °C 9.1 °C 1010.7 hPa Calm     89 % 0 mm
04:28 10.9 °C 9.3 °C 1010.7 hPa Calm     90 % 0 mm
04:34 10.8 °C 9.2 °C 1010.7 hPa Calm     90 % 0 mm
04:42 10.8 °C 9.3 °C 1010.7 hPa Calm     90 % 0 mm
04:48 10.8 °C 9.3 °C 1010.7 hPa Calm     90 % 0 mm
04:53 10.8 °C 9.3 °C 1010.7 hPa Calm     90 % 0 mm
05:00 10.9 °C 9.3 °C 1010.7 hPa Calm     90 % 0 mm
05:05 10.9 °C 9.3 °C 1010.4 hPa Calm     90 % 0 mm
11:08 28.4 °C 0.2 °C 1011.4 hPa NW 17.7 km/h 25.9 km/h 16 % 0 mm
11:17 28.6 °C 0.3 °C 1011.4 hPa North 13.5 km/h 13.5 km/h 16 % 0 mm
11:23 28.9 °C 0.6 °C 1011.1 hPa North 13.8 km/h 22.2 km/h 16 % 0 mm
11:41 28.8 °C 1.3 °C 1010.7 hPa NW 12.7 km/h 18.5 km/h 17 % 0 mm
11:47 28.9 °C 1.4 °C 1010.7 hPa North 9.5 km/h 11.1 km/h 17 % 0 mm
11:54 29 °C 2.3 °C 1010.7 hPa North 12.6 km/h 18.5 km/h 18 % 0 mm
12:26 30.3 °C 1.7 °C 1010.7 hPa North 6.3 km/h 18.5 km/h 16 % 0 mm
12:41 29.9 °C 1.4 °C 1010.7 hPa NW 7.6 km/h 11.3 km/h 16 % 0 mm
13:16 30.8 °C 1.2 °C 1010.4 hPa North 12.9 km/h 24.1 km/h 15 % 0 mm
13:21 30.8 °C 1.2 °C 1010.4 hPa North 10.8 km/h 18.5 km/h 15 % 0 mm
13:52 31.4 °C 3.4 °C 1009.7 hPa NNW 12.2 km/h 18.5 km/h 17 % 0 mm
14:01 31.6 °C 1.8 °C 1009.7 hPa North 5.8 km/h 13 km/h 15 % 0 mm
14:07 31.8 °C 2.8 °C 1009.7 hPa NNE 13.8 km/h 20.9 km/h 16 % 0 mm
14:27 31.5 °C 2.6 °C 1009.4 hPa NNE 10.6 km/h 13 km/h 16 % 0 mm
14:42 32.2 °C 3.2 °C 1009.4 hPa North 8.9 km/h 14.5 km/h 16 % 0 mm
15:04 31.8 °C 5.3 °C 1009 hPa North 10 km/h 17.7 km/h 19 % 0 mm
15:11 32.5 °C 4.3 °C 1009 hPa WNW 14.8 km/h 18.5 km/h 17 % 0 mm
15:26 31.7 °C 4.5 °C 1009 hPa North 14 km/h 22.2 km/h 18 % 0 mm
15:33 31.9 °C 4.7 °C 1009 hPa WNW 9 km/h 14.8 km/h 18 % 0 mm
15:41 32.1 °C 4.8 °C 1008.7 hPa North 5.6 km/h 11.1 km/h 18 % 0 mm
15:54 32.3 °C 4.1 °C 1008.7 hPa NNW 11.6 km/h 16.7 km/h 17 % 0 mm
16:08 32 °C 5.5 °C 1008.7 hPa North 10.1 km/h 16.7 km/h 19 % 0 mm
16:16 32.1 °C 5.6 °C 1008.4 hPa North 10.1 km/h 11.1 km/h 19 % 0 mm
16:23 32.1 °C 6.3 °C 1008.4 hPa North 4.2 km/h 5.6 km/h 20 % 0 mm
16:47 32.2 °C 6.4 °C 1008 hPa NNE 9.3 km/h 16.1 km/h 20 % 0 mm
17:12 32 °C 5.5 °C 1007.7 hPa WNW 6.6 km/h 7.4 km/h 19 % 0 mm
17:18 32.1 °C 6.3 °C 1007.7 hPa NW 0.6 km/h 7.4 km/h 20 % 0 mm
17:32 32.6 °C 5.9 °C 1007.7 hPa NW 9.5 km/h 13 km/h 19 % 0 mm
17:38 32.3 °C 5.8 °C 1007.7 hPa North 7.2 km/h 11.1 km/h 19 % 0 mm
17:46 33 °C 6.3 °C 1007.7 hPa NW 3.2 km/h 5.6 km/h 19 % 0 mm
17:52 33.2 °C 5.7 °C 1007.7 hPa North 11.7 km/h 18.5 km/h 18 % 0 mm
17:59 33 °C 6.3 °C 1007.7 hPa NNW 4 km/h 11.1 km/h 19 % 0 mm
18:05 32.5 °C 5.9 °C 1007.3 hPa NNW 12.9 km/h 16.7 km/h 19 % 0 mm
18:23 32 °C 6.2 °C 1007.3 hPa NW 5.6 km/h 6.4 km/h 20 % 0 mm
18:30 32.4 °C 6.6 °C 1007.3 hPa NNW 3.1 km/h 5.6 km/h 20 % 0 mm
18:52 32.4 °C 5.8 °C 1007.3 hPa WNW 10.1 km/h 16.7 km/h 19 % 0 mm
18:58 31.9 °C 6.2 °C 1007.3 hPa NW 6.4 km/h 7.4 km/h 20 % 0 mm
19:07 31.6 °C 5.9 °C 1007.3 hPa NW 4.7 km/h 7.4 km/h 20 % 0 mm
19:16 31.5 °C 6.5 °C 1007.3 hPa NW 6.9 km/h 11.1 km/h 21 % 0 mm
19:43 31.2 °C 6.3 °C 1007.3 hPa NW 4.2 km/h 5.6 km/h 21 % 0 mm
20:20 30.6 °C 7.1 °C 1007.7 hPa Calm     23 % 0 mm
20:26 30.3 °C 6.9 °C 1007.7 hPa North 0.2 km/h 1.6 km/h 23 % 0 mm
20:33 30.1 °C 7.9 °C 1007.7 hPa Calm     25 % 0 mm
20:54 28.8 °C 8.5 °C 1007.7 hPa Calm     28 % 0 mm
21:01 28.2 °C 8.5 °C 1007.7 hPa Calm     29 % 0 mm
21:07 27.8 °C 8.7 °C 1007.7 hPa Calm     30 % 0 mm
21:18 27.5 °C 9.8 °C 1007.3 hPa Calm     33 % 0 mm
21:23 27.3 °C 9.7 °C 1007.3 hPa Calm     33 % 0 mm
21:30 27.1 °C 9.9 °C 1007.3 hPa Calm     34 % 0 mm
21:50 26.4 °C 10.5 °C 1007.3 hPa Calm     37 % 0 mm
22:00 25.8 °C 10.4 °C 1007 hPa Calm     38 % 0 mm
22:07 25.7 °C 10.7 °C 1007 hPa Calm     39 % 0 mm
22:18 25.5 °C 10.9 °C 1007 hPa Calm     40 % 0 mm
22:24 25.3 °C 11.1 °C 1007 hPa Calm     41 % 0 mm
22:42 25.2 °C 11.1 °C 1006.7 hPa Calm     41 % 0 mm
23:35 24.8 °C 9.5 °C 1006.3 hPa Calm     38 % 0 mm
23:47 25.5 °C 8.5 °C 1006.3 hPa NW 1 km/h 3.7 km/h 34 % 0 mm
Ararat Weather
Compliments of Weather Underground - 1.25 mb
Click here to send mail.


ABOUT

Live weather data from Ararat, Victoria, Australia, 3377
Data uploaded from Cumulus every 5 minutes to Weather Underground.
This site then downloads the raw data for formatting and display.
Metric and imperial data can be displayed. Graphs and historical data available.
Includes Sun and Moon times and rain image live from BOM.

Check out Ararat Weather on Facebook, Twitter and Google +

Help support ongoing costs by checking out the ads





Follow @AraratWeather